Regional Weather Roundup
Issued by NWS Sioux Falls, SD

Home | Current Version | Previous Version | Text Only | Print | Product List | Glossary On
Versions: 1 2 3 4 5 6 7 8 9 10 11 12 13 14 15 16 17 18 19 20 21 22 23 24 25 26 27 28 29 30 31 32 33 34 35 36 37 38 39 40 41 42 43 44 45 46 47 48 49 50
000
ASUS43 KFSD 241310
RWRFSD

WEATHER ROUNDUP FOR SE SOUTH DAKOTA/SW MINNESOTA/NW IOWA
NATIONAL WEATHER SERVICE SIOUX FALLS SD
800 AM CDT MON JUL 24 2017

NOTE: "FAIR" INDICATES FEW OR NO CLOUDS BELOW 12,000 FEET WITH NO
SIGNIFICANT WEATHER AND OR OBSTRUCTIONS TO VISIBILITY.


SDZ038>040-050-052>070-241400-
SOUTHEAST SOUTH DAKOTA

CITY           SKY/WX    TMP DP  RH WIND       PRES   REMARKS
BROOKINGS      SUNNY     62  59  90 S8        30.05R
CHAMBERLAIN    SUNNY     66  63  89 E8        29.97S
HURON          MOSUNNY   64  60  87 SE12      30.00R
MADISON        FAIR      63  63 100 S7        30.05R
MITCHELL       MOSUNNY   64  60  87 SE8       30.01S
SIOUX FALLS    CLOUDY    66  62  87 SE8       30.04S
WINNER         FAIR      72  58  61 S16       29.97S
YANKTON        MOSUNNY   62  60  93 E5        30.04R
$$

MNZ071-072-080-081-089-090-097-098-241400-
SOUTHWEST MINNESOTA

CITY           SKY/WX    TMP DP  RH WIND       PRES   REMARKS
FAIRMONT       SUNNY     61  59  93 CALM      30.08S
JACKSON        SUNNY     63  59  88 CALM      30.08S
LUVERNE        SUNNY     59  55  88 CALM      30.05F
MARSHALL       SUNNY     64  61  90 S9        30.05F
MONTEVIDEO     SUNNY     64  63  94 S6        30.05S
PIPESTONE      SUNNY     64  61  88 S8        30.05S
REDWOOD FALLS  SUNNY     62  59  90 SE5       30.07R
WINDOM         SUNNY     63  59  88 CALM      30.08S
WORTHINGTON    SUNNY     63  60  90 E6        30.06F
$$

IAZ001>003-012>014-020>022-031-032-NEZ013-014-SDZ071-241400-
NORTHWEST IOWA

CITY           SKY/WX    TMP DP  RH WIND       PRES   REMARKS
CHEROKEE       SUNNY     60  60 100 CALM      30.06S
DENISON        SUNNY     61  61 100 CALM      30.07S
ESTHERVILLE    SUNNY     61  60  97 CALM      30.06S
ORANGE CITY    SUNNY     63  61  94 E5        30.04F
SHELDON        SUNNY     63  61  94 SE5       30.04F
SIOUX CITY     SUNNY     64  60  87 E5        30.04F
SPENCER        SUNNY     62  59  90 CALM      30.07S
STORM LAKE     SUNNY     63  61  94 SE7       30.07R
$$

ABBREVIATIONS USED IN REMARKS
   TC - TEMPERATURE IN CELSIUS
  WCI - WIND CHILL INDEX
   HX - HEAT INDEX
  VSB - VISIBILITY





USA.gov is the U.S. government's official web portal to all federal, state and local government web resources and services.